sat.trackr.live / text

‹ back to catalog

ONEWEB-0566

NORAD 56061 · 2023-043R

PAYLOAD ACTIVE UNKNOWN

§ Identity

Operator
Country
UK
Launch date
2023-03-26
Launch site
SRILR
Launch vehicle
Mass (kg)
RCS (m²)

Purposes: comms

External: N2YO · Heavens-Above · Gunter

§ Orbital elements

Epoch: 2026-05-25T00:50:59.221824Z

Period
108.94 min
Inclination
87.9253°
Eccentricity
0.0001641
Mean motion
13.21825636 rev/d
Perigee alt
1,176.5 km
Apogee alt
1,179.0 km
Semi-major
7,555.9 km
B*
1.5004e-4
RAAN
248.5778°
Arg perigee
100.6955°
Mean anomaly
259.4364°
Rev number
15,517

§ Raw data

ONEWEB-05661 56061U 23043R   26145.03540766  .00000075  00000+0  15004-3 0  99932 56061  87.9253 248.5778 0001641 100.6955 259.4364 13.21825636155172

JSON: /api/v1/satellites/56061 · /tle

For live sub-satellite position, see the globe view (requires WebGL).

§ Visibility from observer

Set your observer location to see the next 7 days of passes ≥ 10°. The values pass through the URL so the page stays shareable.

No JS? Fill the form by hand. The geolocation button needs JavaScript.